Simultaneous Nadir Overpasses (SNOs) Predictions

Prediction of SNOs between GOES-16 and NPP Satellite Orbit:

Table of predicted SNOs for the next 14.0 days since TLE Epoch: 11/2/2024
Index Date Time (GOES-16) GOES-16 Lat,Lon NPP Lat,Lon Distance(km) Time Diff (sec)
1 11/02/2024 18:10:03 -0.03, -75.21 0.88, -71.11 466.36 80
2 11/04/2024 06:29:12 0.02, -75.20 0.27, -76.39 135.36 80
3 11/05/2024 06:13:06 0.02, -75.20 -0.70, -71.85 381.40 80
4 11/06/2024 18:32:23 -0.02, -75.22 -0.46, -77.16 221.11 80
5 11/07/2024 18:16:18 -0.02, -75.22 0.59, -72.63 295.97 80
6 11/09/2024 06:38:04 0.01, -75.22 0.64, -77.88 304.68 80
7 11/10/2024 06:16:40 0.01, -75.23 -0.42, -73.36 212.83 80
8 11/11/2024 18:38:35 -0.01, -75.25 -0.77, -78.66 388.36 80
9 11/12/2024 18:22:30 -0.01, -75.26 0.24, -74.12 129.73 80
10 11/14/2024 06:44:16 0.01, -75.27 0.95, -79.38 469.22 80
11 11/15/2024 06:22:51 0.01, -75.28 -0.06, -74.85 49.08 80
